Regional Weather Roundup
Issued by NWS

Home | Current Version | Previous Version | Graphics & Text | Print | Product List | Glossary Off
Versions: 1 2 3 4 5 6 7 8 9 10 11 12 13 14 15 16 17 18 19 20 21 22 23 24 25 26 27 28 29 30 31 32 33 34 35 36 37 38 39 40 41 42 43 44 45 46 47 48 49 50

000
ASUS43 KFSD 271110
RWRSD

WEATHER ROUNDUP FOR SOUTH DAKOTA
NATIONAL WEATHER SERVICE SIOUX FALLS SD
500 AM CST FRI FEB 27 2015

NOTE: "FAIR" INDICATES FEW OR NO CLOUDS BELOW 12,000 FEET WITH NO
SIGNIFICANT WEATHER AND/OR OBSTRUCTIONS TO VISIBILITY.


SDZ001>005-009-010-012>017-271200-
NORTHWEST AND NORTH CENTRAL SOUTH DAKOTA

CITY           SKY/WX    TMP DP  RH WIND       PRES   REMARKS
BUFFALO          N/A     -4 -11  72 SE6       30.15F WCI -16
FAITH            N/A     -4  -9  79 S13       30.32F WCI -23
MOBRIDGE       PTCLDY    -8 -13  78 SE6       30.41S WCI -21
$$

SDZ012>016-024>037-041>051-057-063-072>074-271200-
SOUTHWEST AND SOUTH CENTRAL SOUTH DAKOTA

CITY           SKY/WX    TMP DP  RH WIND       PRES   REMARKS
RAPID CTY ARPT CLEAR     -5 -10  79 S9        30.26F WCI -22
PIERRE         CLEAR     -4 -10  75 CALM      30.45F
CUSTER         CLEAR    -11 -17  75 SW3       30.03F
ELLSWORTH AFB  CLEAR     -1  -8  70 S12       30.23F WCI -18
PHILIP         CLEAR    -11 -17  75 W3        30.39F
PINE RIDGE     CLEAR     -6 -11  79 CALM      30.28F
WINNER         FAIR       1  -9  62 SW5       30.45F WCI  -9
$$

SDZ004>011-016>023-039-040-271200-
NORTHEAST SOUTH DAKOTA

CITY           SKY/WX    TMP DP  RH WIND       PRES   REMARKS
ABERDEEN       CLEAR    -16 -21  78 SW3       30.50F
WATERTOWN      PTCLDY   -14 -20  74 CALM      30.45S
SISSETON         N/A     -8 -14  74 W7        30.49S WCI -23
$$

SDZ017-020-022-023-036>040-048>070-271200-
SOUTHEAST SOUTH DAKOTA

CITY           SKY/WX    TMP DP  RH WIND       PRES   REMARKS
SIOUX FALLS    CLEAR     -9 -13  83 W5        30.52R WCI -20
HURON          MOCLDY   -17 -22  78 CALM      30.53S
CHAMBERLAIN    CLEAR     -6  -9  84 CALM      30.49F
MITCHELL       CLEAR     -5 -10  79 SW5       30.55S WCI -16
YANKTON        CLEAR     -2 -11  65 CALM      30.56S
$$

ABBREVIATIONS USED IN REMARKS
   TC - TEMPERATURE IN CELSIUS
  WCI - WIND CHILL INDEX
   HX - HEAT INDEX
  VSB - VISIBILITY



USA.gov is the U.S. government's official web portal to all federal, state and local government web resources and services.